Weather History for Metropolis, IL

Change the Weather History Date:

Monday, January 27, 2014

  Actual Average (KPAH) Record (KPAH)
Temperature  
Mean Temperature 30 °F 35 °F  
Max Temperature 46 °F 44 °F 70 °F (1947)
Min Temperature 13 °F 26 °F -5 °F (1940)
Degree Days  
Heating Degree Days 36 30  
Month to date heating degree days 827  
Since 1 July heating degree days 2458  
Cooling Degree Days 0 0  
Month to date cooling degree days 0  
Year to date cooling degree days 0  
Moisture  
Dew Point -4 °F    
Average Humidity 34    
Maximum Humidity 58    
Minimum Humidity 25    
Precipitation  
Precipitation 0.00 in 0.12 in 2.49 in (2009)
Month to date precipitation 3.18  
Year to date precipitation 3.18  
Snow  
Snow 0.00 in 0.10 in 3.80 in (1985)
Month to date snowfall 2.5  
Since 1 July snowfall 4.8  
Snow Depth -    
Sea Level Pressure  
Sea Level Pressure 30.28 in    
Wind  
Wind Speed 14 mph (North)    
Max Wind Speed 28 mph    
Max Gust Speed 39 mph    
Visibility 10 miles    
Events      
T = Trace of Precipitation, MM = Missing Value Source: NWS Daily Summary

Daily Weather History Graph

Daily Weather History Graph

Search for Another Location

Airport:

Trip Planner

Search our weather history database for the weather conditions in past years. The results will help you decide how hot, cold, wet, or windy it might be!

Date:

Astronomy

Jan. 27, 2014 Rise Set
Actual Time 7:01 AM CST 5:14 PM CST
Civil Twilight 6:33 AM CST 5:42 PM CST
Nautical Twilight 6:02 AM CST 6:13 PM CST
Astronomical Twilight 5:31 AM CST 6:44 PM CST
Moon 3:41 AM CST 2:01 PM CST
Length of Visible Light 11h 08m
Length of Day
10h 12m
Waning Crescent, 14% of the Moon is Illuminated
Jan 27
Waning Crescent
Jan 30
New
Feb 6
First Quarter
Feb 14
Full
Feb 22
Last Quarter

Hourly Weather History & Observations

Time (CST) Temp. Windchill Dew Point Humidity Pressure Visibility Wind Dir Wind Speed Gust Speed Precip Events Conditions
12:15 AM 46.0 °F 42.5 °F 32.0 °F 58% 29.80 in 10.0 mi WNW 6.9 mph - N/A   Overcast
12:35 AM 38.5 °F 27.1 °F 24.3 °F 57% 29.86 in 10.0 mi NNW 26.5 mph 38.0 mph N/A   Scattered Clouds
12:55 AM 35.6 °F 24.8 °F 21.4 °F 56% 29.90 in 10.0 mi North 19.6 mph 34.5 mph N/A   Clear
1:15 AM 34.3 °F 22.9 °F 19.9 °F 56% 29.91 in 10.0 mi NNW 20.7 mph 35.7 mph N/A   Clear
1:35 AM 33.8 °F 22.5 °F 19.4 °F 56% 29.94 in 10.0 mi North 19.6 mph 25.3 mph N/A   Clear
1:55 AM 32.7 °F 20.7 °F 18.9 °F 57% 29.96 in 10.0 mi NNW 20.7 mph 27.6 mph N/A   Scattered Clouds
2:15 AM 30.9 °F 19.4 °F 17.1 °F 57% 29.99 in 10.0 mi North 17.3 mph 24.2 mph N/A   Scattered Clouds
2:35 AM 29.3 °F 17.0 °F 13.3 °F 51% 30.01 in 10.0 mi North 18.4 mph 34.5 mph N/A   Clear
2:55 AM 28.2 °F 13.0 °F 10.0 °F 47% 30.03 in 10.0 mi NNW 27.6 mph 39.1 mph N/A   Clear
3:15 AM 27.3 °F 16.1 °F 8.6 °F 45% 30.06 in 10.0 mi NNW 13.8 mph 26.5 mph N/A   Clear
3:35 AM 26.1 °F 13.1 °F 4.8 °F 40% 30.08 in 10.0 mi North 17.3 mph 26.5 mph N/A   Clear
3:55 AM 25.2 °F 10.8 °F 2.1 °F 37% 30.08 in 10.0 mi North 20.7 mph 25.3 mph N/A   Clear
4:15 AM 24.6 °F 12.2 °F 2.3 °F 38% 30.10 in 10.0 mi North 15.0 mph 28.8 mph N/A   Scattered Clouds
4:35 AM 23.9 °F 10.3 °F -3.5 °F 30% 30.12 in 10.0 mi North 17.3 mph 27.6 mph N/A   Mostly Cloudy
4:55 AM 23.0 °F 8.0 °F -4.9 °F 29% 30.14 in 10.0 mi North 20.7 mph 28.8 mph N/A   Overcast
5:15 AM 22.1 °F 7.2 °F -5.3 °F 30% 30.16 in 10.0 mi North 19.6 mph 28.8 mph N/A   Overcast
5:35 AM 21.4 °F 8.0 °F -9.4 °F 25% 30.18 in 10.0 mi North 15.0 mph 29.9 mph N/A   Overcast
5:55 AM 20.7 °F 6.1 °F -10.7 °F 25% 30.19 in 10.0 mi NNW 17.3 mph 27.6 mph N/A   Overcast
6:15 AM 19.9 °F 5.2 °F -10.5 °F 26% 30.20 in 10.0 mi NNW 17.3 mph 29.9 mph N/A   Overcast
6:35 AM 19.4 °F 3.2 °F -10.5 °F 26% 30.22 in 10.0 mi North 20.7 mph 26.5 mph N/A   Overcast
6:55 AM 19.0 °F 3.2 °F -10.3 °F 27% 30.24 in 10.0 mi North 19.6 mph 27.6 mph N/A   Overcast
7:15 AM 18.5 °F 5.5 °F -9.2 °F 29% 30.25 in 10.0 mi North 12.7 mph 19.6 mph N/A   Overcast
7:35 AM 18.1 °F 5.0 °F -9.4 °F 29% 30.27 in 10.0 mi North 12.7 mph 21.9 mph N/A   Overcast
7:55 AM 17.6 °F 4.3 °F -9.4 °F 30% 30.28 in 10.0 mi North 12.7 mph 19.6 mph N/A   Overcast
8:15 AM 17.6 °F 1.3 °F -10.1 °F 29% 30.30 in 10.0 mi NNW 19.6 mph 25.3 mph N/A   Overcast
8:35 AM 17.6 °F 4.3 °F -9.2 °F 30% 30.31 in 10.0 mi North 12.7 mph 20.7 mph N/A   Overcast
8:55 AM 17.6 °F 1.7 °F -10.1 °F 29% 30.32 in 10.0 mi North 18.4 mph 21.9 mph N/A   Overcast
9:15 AM 17.1 °F 1.0 °F -10.8 °F 28% 30.33 in 10.0 mi NNW 18.4 mph 23.0 mph N/A   Overcast
9:35 AM 16.9 °F 4.1 °F -10.5 °F 29% 30.34 in 10.0 mi North 11.5 mph 16.1 mph N/A   Scattered Clouds
9:55 AM 18.3 °F 6.6 °F -10.1 °F 28% 30.34 in 10.0 mi North 10.4 mph 19.6 mph N/A   Scattered Clouds
10:15 AM 18.5 °F 6.8 °F -9.6 °F 28% 30.34 in 10.0 mi North 10.4 mph - N/A   Clear
10:35 AM 18.9 °F 8.0 °F -9.0 °F 29% 30.35 in 10.0 mi North 9.2 mph 19.6 mph N/A   Clear
10:55 AM 18.5 °F 6.1 °F -8.3 °F 30% 30.35 in 10.0 mi North 11.5 mph 16.1 mph N/A   Scattered Clouds
11:15 AM 18.5 °F 6.1 °F -9.6 °F 28% 30.35 in 10.0 mi North 11.5 mph 17.3 mph N/A   Scattered Clouds
11:35 AM 18.7 °F 7.0 °F -9.6 °F 28% 30.36 in 10.0 mi North 10.4 mph 18.4 mph N/A   Scattered Clouds
11:55 AM 19.4 °F 7.2 °F -11.0 °F 26% 30.35 in 10.0 mi NNW 11.5 mph 17.3 mph N/A   Clear
12:15 PM 18.7 °F 7.0 °F -12.1 °F 25% 30.35 in 10.0 mi North 10.4 mph - N/A   Clear
12:35 PM 19.0 °F 8.2 °F -11.6 °F 25% 30.35 in 10.0 mi NNW 9.2 mph 18.4 mph N/A   Clear
12:55 PM 18.1 °F 4.4 °F -12.6 °F 25% 30.33 in 10.0 mi NNW 13.8 mph - N/A   Clear
1:15 PM 18.0 °F 8.7 °F -11.6 °F 26% 30.32 in 10.0 mi North 6.9 mph 10.4 mph N/A   Clear
1:35 PM 20.1 °F 10.3 °F -10.7 °F 25% 30.33 in 10.0 mi NW 8.1 mph 18.4 mph N/A   Clear
1:55 PM 20.1 °F 8.1 °F -10.7 °F 25% 30.33 in 10.0 mi NNW 11.5 mph 17.3 mph N/A   Clear
2:15 PM 20.8 °F 8.4 °F -10.5 °F 25% 30.32 in 10.0 mi NNW 12.7 mph 18.4 mph N/A   Clear
2:35 PM 19.8 °F 7.7 °F -11.0 °F 25% 30.33 in 10.0 mi NW 11.5 mph 19.6 mph N/A   Clear
2:55 PM 19.4 °F 7.2 °F -10.8 °F 26% 30.34 in 10.0 mi NNW 11.5 mph 19.6 mph N/A   Clear
3:15 PM 19.4 °F 6.0 °F -11.0 °F 26% 30.34 in 10.0 mi NNW 13.8 mph 21.9 mph N/A   Clear
3:35 PM 19.2 °F 7.0 °F -10.7 °F 26% 30.35 in 10.0 mi North 11.5 mph - N/A   Clear
3:55 PM 19.0 °F 6.1 °F -10.7 °F 26% 30.36 in 10.0 mi NNW 12.7 mph - N/A   Clear
4:15 PM 19.0 °F 9.0 °F -9.2 °F 28% 30.36 in 10.0 mi NNW 8.1 mph - N/A   Clear
4:35 PM 19.8 °F 9.9 °F -8.9 °F 28% 30.36 in 10.0 mi North 8.1 mph - N/A   Clear
4:55 PM 18.7 °F 7.0 °F -8.5 °F 30% 30.37 in 10.0 mi North 10.4 mph 17.3 mph N/A   Clear
5:15 PM 17.8 °F 7.5 °F -7.6 °F 32% 30.37 in 10.0 mi North 8.1 mph - N/A   Clear
5:35 PM 17.4 °F 8.0 °F -7.1 °F 34% 30.38 in 10.0 mi North 6.9 mph - N/A   Clear
5:55 PM 17.1 °F 10.0 °F -6.0 °F 36% 30.40 in 10.0 mi North 4.6 mph - N/A   Clear
6:15 PM 16.5 °F 6.0 °F -5.3 °F 38% 30.41 in 10.0 mi North 8.1 mph - N/A   Clear
6:35 PM 16.5 °F 5.1 °F -6.0 °F 37% 30.40 in 10.0 mi NNW 9.2 mph - N/A   Clear
6:55 PM 16.7 °F 6.2 °F -5.6 °F 37% 30.42 in 10.0 mi NNW 8.1 mph - N/A   Clear
7:15 PM 16.7 °F 8.3 °F -5.1 °F 38% 30.43 in 10.0 mi North 5.8 mph - N/A   Clear
7:35 PM 16.3 °F 4.1 °F -6.9 °F 35% 30.43 in 10.0 mi North 10.4 mph - N/A   Clear
7:55 PM 16.2 °F 5.5 °F -6.2 °F 37% 30.43 in 10.0 mi North 8.1 mph - N/A   Clear
8:15 PM 15.8 °F 5.1 °F -7.1 °F 36% 30.44 in 10.0 mi North 8.1 mph - N/A   Clear
8:35 PM 15.4 °F 4.6 °F -7.1 °F 37% 30.45 in 10.0 mi North 8.1 mph - N/A   Clear
8:55 PM 15.1 °F 4.2 °F -7.2 °F 37% 30.45 in 10.0 mi North 8.1 mph - N/A   Clear
9:15 PM 14.9 °F 2.3 °F -6.0 °F 39% 30.44 in 10.0 mi North 10.4 mph - N/A   Clear
9:35 PM 14.9 °F 6.1 °F -5.4 °F 40% 30.44 in 10.0 mi NNE 5.8 mph - N/A   Clear
9:55 PM 14.5 °F 2.7 °F -6.0 °F 40% 30.44 in 10.0 mi North 9.2 mph - N/A   Clear
10:15 PM 14.4 °F 2.4 °F -6.0 °F 40% 30.44 in 10.0 mi North 9.2 mph - N/A   Scattered Clouds
10:35 PM 14.4 °F 1.6 °F -7.1 °F 38% 30.45 in 10.0 mi NNE 10.4 mph - N/A   Scattered Clouds
10:55 PM 14.2 °F 4.1 °F -6.7 °F 39% 30.45 in 10.0 mi NNE 6.9 mph - N/A   Clear
11:15 PM 14.0 °F -0.2 °F -6.5 °F 40% 30.46 in 10.0 mi NNE 12.7 mph - N/A   Scattered Clouds
11:35 PM 13.6 °F 0.7 °F -6.5 °F 40% 30.47 in 10.0 mi North 10.4 mph - N/A   Scattered Clouds
11:55 PM 13.1 °F 0.9 °F -7.4 °F 40% 30.47 in 10.0 mi North 9.2 mph - N/A   Clear